Location: Asis
(14.1331°N, 120.9056°E)
Time: 16:16:48
(UTC+00:00)

Meteor 2-15 Rocket - Pass Details

Date: 15 January 2026
Orbit: 939 x 956 km, 82.5° (Epoch: 13 February)

Event Time Altitude Azimuth Distance (km) Brightness Sun altitude
Rises 10:34:04 0° 3° (N) 3,615 7.3 -11.5°
Reaches altitude 10° 10:36:37 10° 7° (N) 2,667 6.5 -12.1°
Maximum altitude 10:42:35 56° 85° (E) 1,110 4.5 -13.4°
Drops below altitude 10° 10:48:30 10° 162° (SSE) 2,654 6.8 -14.8°
Sets 10:51:02 0° 167° (SSE) 3,595 7.5 -15.4°
